Previsão horária em Aliso Viejo

Hoje, 26 Janeiro, Terça-feira

Tempo Temperatura Precipitação Vento Pressão Humidade
00:00 +5°C° 0 mm 7 m/s 742 mmHg 54%
01:00 +5°C° 0 mm 6 m/s 742 mmHg 55%
02:00 +4°C° 0 mm 6 m/s 743 mmHg 55%
03:00 +5°C° 0 mm 5 m/s 743 mmHg 56%
04:00 +5°C° 0 mm 5 m/s 743 mmHg 57%
05:00 +4°C° 0 mm 4 m/s 744 mmHg 57%
06:00 +4°C° 0 mm 3 m/s 744 mmHg 58%
07:00 +4°C° 0 mm 3 m/s 745 mmHg 59%
08:00 +6°C° 0 mm 2 m/s 746 mmHg 52%
09:00 +9°C° 0 mm 1 m/s 746 mmHg 45%
10:00 +10°C° 0 mm 1 m/s 747 mmHg 38%
11:00 +11°C° 0 mm 1 m/s 747 mmHg 36%
12:00 +12°C° 0 mm 2 m/s 747 mmHg 34%
13:00 +12°C° 0 mm 2 m/s 747 mmHg 32%
14:00 +12°C° 0 mm 2 m/s 747 mmHg 33%
15:00 +11°C° 0 mm 3 m/s 748 mmHg 35%
16:00 +11°C° 0 mm 3 m/s 748 mmHg 37%
17:00 +10°C° 0 mm 3 m/s 748 mmHg 42%
18:00 +9°C° 0 mm 2 m/s 749 mmHg 47%
19:00 +9°C° 0 mm 1 m/s 750 mmHg 52%
20:00 +8°C° 0 mm 2 m/s 750 mmHg 53%
21:00 +8°C° 0 mm 2 m/s 750 mmHg 54%
22:00 +8°C° 0 mm 2 m/s 751 mmHg 54%
23:00 +8°C° 0 mm 2 m/s 751 mmHg 55%

Amanhã, 27 Janeiro, Quarta-feira

Tempo Temperatura Precipitação Vento Pressão Humidade
00:00 +8°C° 0 mm 2 m/s 751 mmHg 56%
01:00 +8°C° 0 mm 2 m/s 751 mmHg 56%
02:00 +8°C° 0 mm 3 m/s 751 mmHg 57%
03:00 +8°C° 0 mm 3 m/s 751 mmHg 58%
04:00 +8°C° 0 mm 3 m/s 751 mmHg 59%
05:00 +8°C° 0 mm 3 m/s 751 mmHg 59%
06:00 +8°C° 0 mm 3 m/s 751 mmHg 60%
07:00 +7°C° 0 mm 3 m/s 751 mmHg 60%
08:00 +9°C° 0 mm 3 m/s 751 mmHg 57%
09:00 +10°C° 0 mm 3 m/s 751 mmHg 55%
10:00 +11°C° 0 mm 3 m/s 751 mmHg 52%
11:00 +12°C° 0 mm 3 m/s 751 mmHg 50%
12:00 +13°C° 0 mm 3 m/s 750 mmHg 49%
13:00 +13°C° 0 mm 3 m/s 750 mmHg 48%
14:00 +13°C° 0 mm 3 m/s 749 mmHg 49%
15:00 +13°C° 0 mm 3 m/s 749 mmHg 50%
16:00 +13°C° 0 mm 3 m/s 749 mmHg 51%
17:00 +12°C° 0 mm 3 m/s 749 mmHg 57%
18:00 +11°C° 0 mm 3 m/s 749 mmHg 63%
19:00 +10°C° 0 mm 2 m/s 749 mmHg 69%
20:00 +10°C° 0 mm 2 m/s 749 mmHg 68%
21:00 +9°C° 0 mm 2 m/s 749 mmHg 68%
22:00 +9°C° 0 mm 2 m/s 749 mmHg 67%
23:00 +9°C° 0 mm 2 m/s 749 mmHg 67%

Depois de amanhã, 28 Janeiro, Quinta-feira

Tempo Temperatura Precipitação Vento Pressão Humidade
00:00 +9°C° 0 mm 2 m/s 749 mmHg 66%
01:00 +8°C° 0 mm 2 m/s 748 mmHg 66%
02:00 +8°C° 0 mm 2 m/s 748 mmHg 66%
03:00 +8°C° 0 mm 2 m/s 748 mmHg 66%
04:00 +8°C° 0 mm 2 m/s 748 mmHg 66%
05:00 +8°C° 0 mm 2 m/s 748 mmHg 64%
06:00 +9°C° 0 mm 3 m/s 748 mmHg 62%
07:00 +8°C° 0 mm 4 m/s 748 mmHg 59%
08:00 +11°C° 0 mm 4 m/s 748 mmHg 57%
09:00 +12°C° 0 mm 4 m/s 748 mmHg 55%
10:00 +14°C° 0 mm 5 m/s 748 mmHg 53%
11:00 +14°C° 0 mm 5 m/s 747 mmHg 53%
12:00 +15°C° 0 mm 6 m/s 747 mmHg 53%
13:00 +15°C° 0 mm 6 m/s 746 mmHg 53%
14:00 +15°C° 0 mm 7 m/s 746 mmHg 56%
15:00 +14°C° 0 mm 7 m/s 745 mmHg 60%
16:00 +14°C° 0 mm 7 m/s 745 mmHg 64%
17:00 +12°C° 0.2 mm 8 m/s 745 mmHg 69%
18:00 +12°C° 0.2 mm 8 m/s 745 mmHg 75%
19:00 +11°C° 0.2 mm 8 m/s 746 mmHg 80%
20:00 +11°C° 3.6 mm 7 m/s 746 mmHg 84%
21:00 +10°C° 3.6 mm 6 m/s 745 mmHg 88%
22:00 +10°C° 3.6 mm 6 m/s 745 mmHg 92%
23:00 +10°C° 2.6 mm 5 m/s 745 mmHg 91%

29 Janeiro, Sexta-feira

Tempo Temperatura Precipitação Vento Pressão Humidade
00:00 +9°C° 2.6 mm 5 m/s 745 mmHg 91%
01:00 +9°C° 2.6 mm 5 m/s 745 mmHg 91%
02:00 +9°C° 1.2 mm 5 m/s 745 mmHg 87%
03:00 +9°C° 1.2 mm 5 m/s 745 mmHg 83%
04:00 +9°C° 1.2 mm 5 m/s 745 mmHg 79%
05:00 +9°C° 0.6 mm 5 m/s 746 mmHg 80%
06:00 +8°C° 0.6 mm 5 m/s 746 mmHg 80%
07:00 +8°C° 0.6 mm 4 m/s 746 mmHg 81%
08:00 +9°C° 0.7 mm 5 m/s 746 mmHg 75%
09:00 +10°C° 0.7 mm 6 m/s 747 mmHg 69%
10:00 +11°C° 0.7 mm 7 m/s 747 mmHg 63%
11:00 +11°C° 0.3 mm 7 m/s 747 mmHg 61%
12:00 +11°C° 0.3 mm 7 m/s 747 mmHg 60%
13:00 +11°C° 0.3 mm 7 m/s 747 mmHg 59%
14:00 +11°C° 0 mm 7 m/s 747 mmHg 58%
15:00 +11°C° 0 mm 8 m/s 747 mmHg 58%
16:00 +11°C° 0 mm 8 m/s 747 mmHg 57%
17:00 +10°C° 0 mm 7 m/s 748 mmHg 61%
18:00 +10°C° 0 mm 6 m/s 748 mmHg 65%
19:00 +9°C° 0 mm 5 m/s 749 mmHg 68%
20:00 +9°C° 0 mm 5 m/s 750 mmHg 70%
21:00 +8°C° 0 mm 4 m/s 750 mmHg 71%
22:00 +9°C° 0 mm 3 m/s 751 mmHg 73%
23:00 +9°C° 0 mm 3 m/s 751 mmHg 74%

30 Janeiro, Sábado

Tempo Temperatura Precipitação Vento Pressão Humidade
00:00 +9°C° 0 mm 3 m/s 751 mmHg 75%
01:00 +8°C° 0 mm 2 m/s 751 mmHg 76%
02:00 +8°C° 0 mm 2 m/s 751 mmHg 76%
03:00 +8°C° 0 mm 2 m/s 751 mmHg 77%
04:00 +8°C° 0 mm 2 m/s 751 mmHg 77%
05:00 +8°C° 0 mm 2 m/s 752 mmHg 78%
06:00 +8°C° 0 mm 2 m/s 752 mmHg 78%
07:00 +7°C° 0 mm 2 m/s 752 mmHg 79%
08:00 +10°C° 0 mm 1 m/s 752 mmHg 71%
09:00 +12°C° 0 mm 1 m/s 753 mmHg 64%
10:00 +13°C° 0 mm 1 m/s 753 mmHg 57%
11:00 +14°C° 0 mm 1 m/s 752 mmHg 55%
12:00 +15°C° 0 mm 1 m/s 752 mmHg 52%
13:00 +16°C° 0 mm 2 m/s 752 mmHg 50%
14:00 +15°C° 0 mm 2 m/s 751 mmHg 51%
15:00 +15°C° 0 mm 2 m/s 751 mmHg 52%
16:00 +14°C° 0 mm 3 m/s 751 mmHg 53%
17:00 +14°C° 0 mm 2 m/s 751 mmHg 58%
18:00 +13°C° 0 mm 2 m/s 752 mmHg 62%
19:00 +12°C° 0 mm 1 m/s 752 mmHg 67%
20:00 +12°C° 0 mm 1 m/s 752 mmHg 67%
21:00 +12°C° 0 mm 1 m/s 752 mmHg 68%
22:00 +12°C° 0 mm 1 m/s 752 mmHg 68%
23:00 +11°C° 0 mm 1 m/s 752 mmHg 67%

31 Janeiro, Domingo

Tempo Temperatura Precipitação Vento Pressão Humidade
00:00 +11°C° 0 mm 1 m/s 752 mmHg 67%
01:00 +10°C° 0 mm 2 m/s 752 mmHg 67%
02:00 +10°C° 0 mm 2 m/s 752 mmHg 66%
03:00 +11°C° 0 mm 1 m/s 752 mmHg 65%
04:00 +11°C° 0 mm 1 m/s 752 mmHg 64%
05:00 +10°C° 0 mm 2 m/s 752 mmHg 63%
06:00 +10°C° 0 mm 2 m/s 752 mmHg 62%
07:00 +10°C° 0 mm 2 m/s 752 mmHg 62%
08:00 +13°C° 0 mm 2 m/s 753 mmHg 55%
09:00 +15°C° 0 mm 1 m/s 753 mmHg 48%
10:00 +18°C° 0 mm 1 m/s 753 mmHg 40%
11:00 +18°C° 0 mm 2 m/s 752 mmHg 38%
12:00 +19°C° 0 mm 2 m/s 752 mmHg 36%
13:00 +20°C° 0 mm 2 m/s 751 mmHg 34%
14:00 +20°C° 0 mm 2 m/s 751 mmHg 35%
15:00 +20°C° 0 mm 3 m/s 751 mmHg 35%
16:00 +19°C° 0 mm 3 m/s 750 mmHg 36%
17:00 +18°C° 0 mm 3 m/s 751 mmHg 40%
18:00 +17°C° 0 mm 2 m/s 751 mmHg 44%
19:00 +15°C° 0 mm 2 m/s 751 mmHg 49%
20:00 +15°C° 0 mm 2 m/s 751 mmHg 49%
21:00 +15°C° 0 mm 2 m/s 752 mmHg 50%
22:00 +15°C° 0 mm 2 m/s 752 mmHg 50%
23:00 +15°C° 0 mm 1 m/s 751 mmHg 49%
Mostrar mais

Necessitamos do seu Consentimento

A Meteoprog e os seus Fornecedores de Serviços podem armazenar e aceder a dados pessoais como cookies, identificadores do dispositivo ou outras tecnologias semelhantes existentes no seu dispositivo e processar estes dados para personalizar conteúdos e anúncios, assim como funcionalidades nas redes sociais e análise de tráfego.

  • Armazenar e/ou aceder a informações no seu dispositivo

    Os cookies, identificadores do dispositivo ou outras informações podem ser armazenados ou acedidos no seu dispositivo, para os fins acima indicados.

  • Anúncios e conteúdos personalizados, medição de anúncios e conteúdos, dados sobre o público-alvo e desenvolvimento de produtos

    Os anúncios e os conteúdos podem ser personalizados com base num perfil. Podem ser adicionados dados adicionais para uma maior personalização dos anúncios e dos conteúdos. A eficácia dos anúncios e dos conteúdos pode ser medida. Podem ser obtidas informações sobre o público que visualizou os anúncios e os conteúdos. Estes dados podem ser usados para desenvolver ou melhorar sistemas, softwares ou a experiência do utilizador.

Ao clicar em "Eu concordo”, permitirá o uso de cookies, identificadores do dispositivo e web beacons mencionados ou outras tecnologias semelhantes. As configurações do navegador do seu dispositivo podem ser alteradas.

Para certos fins, podem ser invocados interesses legítimos ao invés de consentimento. Pode ler mais informação sobre este assunto na nossa Política de Privacidade e Cookies.